Year,Month,Day,Hour,Minute,Value (Times are PST for temperature in C)
2014,07,21,00,00,15.80
2014,07,21,00,01,15.80
2014,07,21,00,02,15.80
2014,07,21,00,03,15.80
2014,07,21,00,04,15.80
2014,07,21,00,05,15.80
2014,07,21,00,06,15.80
2014,07,21,00,07,15.80
2014,07,21,00,08,15.80
2014,07,21,00,09,15.80
2014,07,21,00,10,15.80
2014,07,21,00,11,15.90
2014,07,21,00,12,15.90
2014,07,21,00,13,15.90
2014,07,21,00,14,15.90
2014,07,21,00,15,15.90
2014,07,21,00,16,15.90
2014,07,21,00,17,15.90
2014,07,21,00,18,15.90
2014,07,21,00,19,15.90
2014,07,21,00,20,15.90
2014,07,21,00,21,15.90
2014,07,21,00,22,15.90
2014,07,21,00,23,15.90
2014,07,21,00,24,15.90
2014,07,21,00,25,15.90
2014,07,21,00,26,15.90
2014,07,21,00,27,15.90
2014,07,21,00,28,15.90
2014,07,21,00,29,15.90
2014,07,21,00,30,15.90
2014,07,21,00,31,15.90
2014,07,21,00,32,16.00
2014,07,21,00,33,16.00
2014,07,21,00,34,15.90
2014,07,21,00,35,15.90
2014,07,21,00,36,15.90
2014,07,21,00,37,15.80
2014,07,21,00,38,15.80
2014,07,21,00,39,15.80
2014,07,21,00,40,15.80
2014,07,21,00,41,15.70
2014,07,21,00,42,15.70
2014,07,21,00,43,15.70
2014,07,21,00,44,15.70
2014,07,21,00,45,15.70
2014,07,21,00,46,15.70
2014,07,21,00,47,15.70
2014,07,21,00,48,15.70
2014,07,21,00,49,15.70
2014,07,21,00,50,15.70
2014,07,21,00,51,15.70
2014,07,21,00,52,15.70
2014,07,21,00,53,15.70
2014,07,21,00,54,15.70
2014,07,21,00,55,15.70
2014,07,21,00,56,15.70
2014,07,21,00,57,15.70
2014,07,21,00,58,15.60
2014,07,21,00,59,15.60
2014,07,21,01,00,15.60
2014,07,21,01,01,15.60
2014,07,21,01,02,15.60
2014,07,21,01,03,15.60
2014,07,21,01,04,15.60
2014,07,21,01,05,15.60
2014,07,21,01,06,15.60
2014,07,21,01,07,15.60
2014,07,21,01,08,15.60
2014,07,21,01,09,15.50
2014,07,21,01,10,15.50
2014,07,21,01,11,15.50
2014,07,21,01,12,15.50
2014,07,21,01,13,15.50
2014,07,21,01,14,15.50
2014,07,21,01,15,15.50
2014,07,21,01,16,15.50
2014,07,21,01,17,15.40
2014,07,21,01,18,15.50
2014,07,21,01,19,15.40
2014,07,21,01,20,15.40
2014,07,21,01,21,15.40
2014,07,21,01,22,15.40
2014,07,21,01,23,15.40
2014,07,21,01,24,15.40
2014,07,21,01,25,15.40
2014,07,21,01,26,15.40
2014,07,21,01,27,15.30
2014,07,21,01,28,15.30
2014,07,21,01,29,15.30
2014,07,21,01,30,15.30
2014,07,21,01,31,15.30
2014,07,21,01,32,15.30
2014,07,21,01,33,15.30
2014,07,21,01,34,15.30
2014,07,21,01,35,15.20
2014,07,21,01,36,15.20
2014,07,21,01,37,15.20
2014,07,21,01,38,15.20
2014,07,21,01,39,15.20
2014,07,21,01,40,15.20
2014,07,21,01,41,15.20
2014,07,21,01,42,15.20
2014,07,21,01,43,15.20
2014,07,21,01,44,15.20
2014,07,21,01,45,15.20
2014,07,21,01,46,15.20
2014,07,21,01,47,15.20
2014,07,21,01,48,15.20
2014,07,21,01,49,15.20
2014,07,21,01,50,15.20
2014,07,21,01,51,15.20
2014,07,21,01,52,15.20
2014,07,21,01,53,15.20
2014,07,21,01,54,15.20
2014,07,21,01,55,15.20
2014,07,21,01,56,15.20
2014,07,21,01,57,15.20
2014,07,21,01,58,15.20
2014,07,21,01,59,15.20
2014,07,21,02,00,15.20
2014,07,21,02,01,15.20
2014,07,21,02,02,15.20
2014,07,21,02,03,15.20
2014,07,21,02,04,15.20
2014,07,21,02,05,15.10
2014,07,21,02,06,15.10
2014,07,21,02,07,15.10
2014,07,21,02,08,15.10
2014,07,21,02,09,15.10
2014,07,21,02,10,15.10
2014,07,21,02,11,15.10
2014,07,21,02,12,15.10
2014,07,21,02,13,15.10
2014,07,21,02,14,15.10
2014,07,21,02,15,15.10
2014,07,21,02,16,15.10
2014,07,21,02,17,15.10
2014,07,21,02,18,15.10
2014,07,21,02,19,15.10
2014,07,21,02,20,15.10
2014,07,21,02,21,15.10
2014,07,21,02,22,15.10
2014,07,21,02,23,15.10
2014,07,21,02,24,15.10
2014,07,21,02,25,15.10
2014,07,21,02,26,15.10
2014,07,21,02,27,15.10
2014,07,21,02,28,15.10
2014,07,21,02,29,15.10
2014,07,21,02,30,15.10
2014,07,21,02,31,15.10
2014,07,21,02,32,15.10
2014,07,21,02,33,15.10
2014,07,21,02,34,15.10
2014,07,21,02,35,15.10
2014,07,21,02,36,15.10
2014,07,21,02,37,15.10
2014,07,21,02,38,15.10
2014,07,21,02,39,15.10
2014,07,21,02,40,15.10
2014,07,21,02,41,15.10
2014,07,21,02,42,15.10
2014,07,21,02,43,15.10
2014,07,21,02,44,15.10
2014,07,21,02,45,15.10
2014,07,21,02,46,15.10
2014,07,21,02,47,15.10
2014,07,21,02,48,15.10
2014,07,21,02,49,15.10
2014,07,21,02,50,15.10
2014,07,21,02,51,15.10
2014,07,21,02,52,15.10
2014,07,21,02,53,15.10
2014,07,21,02,54,15.10
2014,07,21,02,55,15.10
2014,07,21,02,56,15.10
2014,07,21,02,57,15.10
2014,07,21,02,58,15.10
2014,07,21,02,59,15.10
2014,07,21,03,00,15.10
2014,07,21,03,01,15.10
2014,07,21,03,02,15.10
2014,07,21,03,03,15.10
2014,07,21,03,04,15.10
2014,07,21,03,05,15.10
2014,07,21,03,06,15.10
2014,07,21,03,07,15.10
2014,07,21,03,08,15.10
2014,07,21,03,09,15.10
2014,07,21,03,10,15.10
2014,07,21,03,11,15.10
2014,07,21,03,12,15.10
2014,07,21,03,13,15.10
2014,07,21,03,14,15.00
2014,07,21,03,15,15.00
2014,07,21,03,16,15.00
2014,07,21,03,17,15.00
2014,07,21,03,18,15.00
2014,07,21,03,19,15.00
2014,07,21,03,20,14.90
2014,07,21,03,21,14.90
2014,07,21,03,22,14.90
2014,07,21,03,23,14.90
2014,07,21,03,24,14.90
2014,07,21,03,25,14.90
2014,07,21,03,26,14.90
2014,07,21,03,27,14.90
2014,07,21,03,28,14.90
2014,07,21,03,29,14.90
2014,07,21,03,30,14.90
2014,07,21,03,31,14.90
2014,07,21,03,32,14.90
2014,07,21,03,33,14.90
2014,07,21,03,34,14.90
2014,07,21,03,35,14.80
2014,07,21,03,36,14.80
2014,07,21,03,37,14.80
2014,07,21,03,38,14.80
2014,07,21,03,39,14.80
2014,07,21,03,40,14.80
2014,07,21,03,41,14.80
2014,07,21,03,42,14.80
2014,07,21,03,43,14.80
2014,07,21,03,44,14.80
2014,07,21,03,45,14.80
2014,07,21,03,46,14.80
2014,07,21,03,47,14.80
2014,07,21,03,48,14.80
2014,07,21,03,49,14.80
2014,07,21,03,50,14.80
2014,07,21,03,51,14.80
2014,07,21,03,52,14.80
2014,07,21,03,53,14.80
2014,07,21,03,54,14.80
2014,07,21,03,55,14.70
2014,07,21,03,56,14.70
2014,07,21,03,57,14.70
2014,07,21,03,58,14.70
2014,07,21,03,59,14.70
2014,07,21,04,00,14.70
2014,07,21,04,01,14.70
2014,07,21,04,02,14.70
2014,07,21,04,03,14.70
2014,07,21,04,04,14.70
2014,07,21,04,05,14.70
2014,07,21,04,06,14.70
2014,07,21,04,07,14.70
2014,07,21,04,08,14.70
2014,07,21,04,09,14.60
2014,07,21,04,10,14.60
2014,07,21,04,11,14.60
2014,07,21,04,12,14.60
2014,07,21,04,13,14.60
2014,07,21,04,14,14.50
2014,07,21,04,15,14.50
2014,07,21,04,16,14.50
2014,07,21,04,17,14.50
2014,07,21,04,18,14.40
2014,07,21,04,19,14.40
2014,07,21,04,20,14.40
2014,07,21,04,21,14.40
2014,07,21,04,22,14.30
2014,07,21,04,23,14.30
2014,07,21,04,24,14.30
2014,07,21,04,25,14.30
2014,07,21,04,26,14.30
2014,07,21,04,27,14.20
2014,07,21,04,28,14.20
2014,07,21,04,29,14.20
2014,07,21,04,30,14.20
2014,07,21,04,31,14.20
2014,07,21,04,32,14.20
2014,07,21,04,33,14.20
2014,07,21,04,34,14.20
2014,07,21,04,35,14.10
2014,07,21,04,36,14.10
2014,07,21,04,37,14.10
2014,07,21,04,38,14.00
2014,07,21,04,39,14.00
2014,07,21,04,40,14.00
2014,07,21,04,41,13.90
2014,07,21,04,42,13.90
2014,07,21,04,43,13.90
2014,07,21,04,44,13.90
2014,07,21,04,45,13.90
2014,07,21,04,46,13.80
2014,07,21,04,47,13.80
2014,07,21,04,48,13.80
2014,07,21,04,49,13.80
2014,07,21,04,50,13.80
2014,07,21,04,51,13.80
2014,07,21,04,52,13.70
2014,07,21,04,53,13.70
2014,07,21,04,54,13.70
2014,07,21,04,55,13.60
2014,07,21,04,56,13.60
2014,07,21,04,57,13.60
2014,07,21,04,58,13.50
2014,07,21,04,59,13.50
2014,07,21,05,00,13.50
2014,07,21,05,01,13.40
2014,07,21,05,02,13.40
2014,07,21,05,03,13.40
2014,07,21,05,04,13.30
2014,07,21,05,05,13.30
2014,07,21,05,06,13.30
2014,07,21,05,07,13.20
2014,07,21,05,08,13.20
2014,07,21,05,09,13.20
2014,07,21,05,10,13.20
2014,07,21,05,11,13.10
2014,07,21,05,12,13.10
2014,07,21,05,13,13.10
2014,07,21,05,14,13.00
2014,07,21,05,15,12.90
2014,07,21,05,16,12.90
2014,07,21,05,17,12.90
2014,07,21,05,18,12.80
2014,07,21,05,19,12.80
2014,07,21,05,20,12.80
2014,07,21,05,21,12.70
2014,07,21,05,22,12.70
2014,07,21,05,23,12.60
2014,07,21,05,24,12.60
2014,07,21,05,25,12.50
2014,07,21,05,26,12.50
2014,07,21,05,27,12.40
2014,07,21,05,28,12.40
2014,07,21,05,29,12.30
2014,07,21,05,30,12.30
2014,07,21,05,31,12.30
2014,07,21,05,32,12.30
2014,07,21,05,33,12.20
2014,07,21,05,34,12.20
2014,07,21,05,35,12.20
2014,07,21,05,36,12.20
2014,07,21,05,37,12.10
2014,07,21,05,38,12.10
2014,07,21,05,39,12.10
2014,07,21,05,40,12.00
2014,07,21,05,41,12.00
2014,07,21,05,42,12.00
2014,07,21,05,43,11.90
2014,07,21,05,44,11.90
2014,07,21,05,45,11.90
2014,07,21,05,46,11.90
2014,07,21,05,47,11.90
2014,07,21,05,48,11.80
2014,07,21,05,49,11.80
2014,07,21,05,50,11.80
2014,07,21,05,51,11.80
2014,07,21,05,52,11.80
2014,07,21,05,53,11.70
2014,07,21,05,54,11.70
2014,07,21,05,55,11.70
2014,07,21,05,56,11.70
2014,07,21,05,57,11.70
2014,07,21,05,58,11.70
2014,07,21,05,59,11.70
2014,07,21,06,00,11.70
2014,07,21,06,01,11.70
2014,07,21,06,02,11.70
2014,07,21,06,03,11.70
2014,07,21,06,04,11.70
2014,07,21,06,05,11.70
2014,07,21,06,06,11.70
2014,07,21,06,07,11.70
2014,07,21,06,08,11.70
2014,07,21,06,09,11.70
2014,07,21,06,10,11.70
2014,07,21,06,11,11.70
2014,07,21,06,12,11.70
2014,07,21,06,13,11.70
2014,07,21,06,14,11.70
2014,07,21,06,15,11.70
2014,07,21,06,16,11.70
2014,07,21,06,17,11.70
2014,07,21,06,18,11.70
2014,07,21,06,19,11.70
2014,07,21,06,20,11.70
2014,07,21,06,21,11.70
2014,07,21,06,22,11.70
2014,07,21,06,23,11.70
2014,07,21,06,24,11.70
2014,07,21,06,25,11.70
2014,07,21,06,26,11.70
2014,07,21,06,27,11.70
2014,07,21,06,28,11.70
2014,07,21,06,29,11.70
2014,07,21,06,30,11.70
2014,07,21,06,31,11.70
2014,07,21,06,32,11.70
2014,07,21,06,33,11.70
2014,07,21,06,34,11.80
2014,07,21,06,35,11.80
2014,07,21,06,36,11.80
2014,07,21,06,37,11.80
2014,07,21,06,38,11.80
2014,07,21,06,39,11.80
2014,07,21,06,40,11.90
2014,07,21,06,41,11.90
2014,07,21,06,42,11.90
2014,07,21,06,43,11.90
2014,07,21,06,44,11.90
2014,07,21,06,45,11.90
2014,07,21,06,46,12.00
2014,07,21,06,47,12.00
2014,07,21,06,48,12.00
2014,07,21,06,49,12.10
2014,07,21,06,50,12.10
2014,07,21,06,51,12.10
2014,07,21,06,52,12.20
2014,07,21,06,53,12.20
2014,07,21,06,54,12.20
2014,07,21,06,55,12.30
2014,07,21,06,56,12.30
2014,07,21,06,57,12.40
2014,07,21,06,58,12.50
2014,07,21,06,59,12.60
2014,07,21,07,00,12.70
2014,07,21,07,01,12.80
2014,07,21,07,02,12.80
2014,07,21,07,03,12.90
2014,07,21,07,04,13.00
2014,07,21,07,05,13.10
2014,07,21,07,06,13.10
2014,07,21,07,07,13.20
2014,07,21,07,08,13.20
2014,07,21,07,09,13.30
2014,07,21,07,10,13.30
2014,07,21,07,11,13.40
2014,07,21,07,12,13.50
2014,07,21,07,13,13.50
2014,07,21,07,14,13.60
2014,07,21,07,15,13.60
2014,07,21,07,16,13.60
2014,07,21,07,17,13.60
2014,07,21,07,18,13.70
2014,07,21,07,19,13.70
2014,07,21,07,20,13.70
2014,07,21,07,21,13.70
2014,07,21,07,22,13.80
2014,07,21,07,23,13.80
2014,07,21,07,24,13.80
2014,07,21,07,25,13.90
2014,07,21,07,26,13.90
2014,07,21,07,27,13.90
2014,07,21,07,28,14.00
2014,07,21,07,29,14.00
2014,07,21,07,30,14.10
2014,07,21,07,31,14.10
2014,07,21,07,32,14.20
2014,07,21,07,33,14.20
2014,07,21,07,34,14.20
2014,07,21,07,35,14.30
2014,07,21,07,36,14.30
2014,07,21,07,37,14.40
2014,07,21,07,38,14.40
2014,07,21,07,39,14.50
2014,07,21,07,40,14.60
2014,07,21,07,41,14.60
2014,07,21,07,42,14.70
2014,07,21,07,43,14.70
2014,07,21,07,44,14.80
2014,07,21,07,45,14.80
2014,07,21,07,46,14.80
2014,07,21,07,47,14.90
2014,07,21,07,48,14.90
2014,07,21,07,49,15.00
2014,07,21,07,50,15.00
2014,07,21,07,51,15.10
2014,07,21,07,52,15.10
2014,07,21,07,53,15.10
2014,07,21,07,54,15.20
2014,07,21,07,55,15.20
2014,07,21,07,56,15.30
2014,07,21,07,57,15.30
2014,07,21,07,58,15.30
2014,07,21,07,59,15.30
2014,07,21,08,00,15.30
2014,07,21,08,01,15.40
2014,07,21,08,02,15.40
2014,07,21,08,03,15.40
2014,07,21,08,04,15.50
2014,07,21,08,05,15.50
2014,07,21,08,06,15.60
2014,07,21,08,07,15.60
2014,07,21,08,08,15.60
2014,07,21,08,09,15.70
2014,07,21,08,10,15.70
2014,07,21,08,11,15.70
2014,07,21,08,12,15.70
2014,07,21,08,13,15.70
2014,07,21,08,14,15.70
2014,07,21,08,15,15.70
2014,07,21,08,16,15.70
2014,07,21,08,17,15.70
2014,07,21,08,18,15.70
2014,07,21,08,19,15.80
2014,07,21,08,20,15.80
2014,07,21,08,21,15.80
2014,07,21,08,22,15.90
2014,07,21,08,23,15.90
2014,07,21,08,24,15.90
2014,07,21,08,25,15.90
2014,07,21,08,26,15.90
2014,07,21,08,27,15.90
2014,07,21,08,28,15.90
2014,07,21,08,29,15.90
2014,07,21,08,30,15.90
2014,07,21,08,31,15.90
2014,07,21,08,32,15.90
2014,07,21,08,33,15.90
2014,07,21,08,34,15.90
2014,07,21,08,35,15.90
2014,07,21,08,36,16.00
2014,07,21,08,37,16.00
2014,07,21,08,38,16.10
2014,07,21,08,39,16.10
2014,07,21,08,40,16.10
2014,07,21,08,41,16.10
2014,07,21,08,42,16.10
2014,07,21,08,43,16.10
2014,07,21,08,44,16.10
2014,07,21,08,45,16.10
2014,07,21,08,46,16.10
2014,07,21,08,47,16.10
2014,07,21,08,48,16.10
2014,07,21,08,49,16.20
2014,07,21,08,50,16.20
2014,07,21,08,51,16.20
2014,07,21,08,52,16.30
2014,07,21,08,53,16.30
2014,07,21,08,54,16.30
2014,07,21,08,55,16.30
2014,07,21,08,56,16.40
2014,07,21,08,57,16.40
2014,07,21,08,58,16.50
2014,07,21,08,59,16.50
2014,07,21,09,00,16.60
2014,07,21,09,01,16.60
2014,07,21,09,02,16.70
2014,07,21,09,03,16.70
2014,07,21,09,04,16.80
2014,07,21,09,05,16.80
2014,07,21,09,06,16.80
2014,07,21,09,07,16.90
2014,07,21,09,08,16.90
2014,07,21,09,09,16.90
2014,07,21,09,10,17.00
2014,07,21,09,11,17.00
2014,07,21,09,12,17.00
2014,07,21,09,13,17.00
2014,07,21,09,14,17.00
2014,07,21,09,15,17.00
2014,07,21,09,16,16.90
2014,07,21,09,17,16.90
2014,07,21,09,18,16.90
2014,07,21,09,19,16.80
2014,07,21,09,20,16.80
2014,07,21,09,21,16.90
2014,07,21,09,22,16.90
2014,07,21,09,23,16.90
2014,07,21,09,24,16.80
2014,07,21,09,25,16.80
2014,07,21,09,26,16.90
2014,07,21,09,27,16.90
2014,07,21,09,28,16.90
2014,07,21,09,29,16.90
2014,07,21,09,30,16.90
2014,07,21,09,31,17.00
2014,07,21,09,32,17.00
2014,07,21,09,33,17.00
2014,07,21,09,34,17.00
2014,07,21,09,35,17.00
2014,07,21,09,36,17.00
2014,07,21,09,37,16.90
2014,07,21,09,38,16.90
2014,07,21,09,39,16.90
2014,07,21,09,40,17.00
2014,07,21,09,41,17.00
2014,07,21,09,42,17.00
2014,07,21,09,43,17.10
2014,07,21,09,44,17.10
2014,07,21,09,45,17.20
2014,07,21,09,46,17.20
2014,07,21,09,47,17.20
2014,07,21,09,48,17.20
2014,07,21,09,49,17.20
2014,07,21,09,50,17.20
2014,07,21,09,51,17.30
2014,07,21,09,52,17.30
2014,07,21,09,53,17.30
2014,07,21,09,54,17.30
2014,07,21,09,55,17.40
2014,07,21,09,56,17.40
2014,07,21,09,57,17.40
2014,07,21,09,58,17.40
2014,07,21,09,59,17.40
2014,07,21,10,00,17.40
2014,07,21,10,01,17.50
2014,07,21,10,02,17.50
2014,07,21,10,03,17.50
2014,07,21,10,04,17.50
2014,07,21,10,05,17.60
2014,07,21,10,06,17.60
2014,07,21,10,07,17.60
2014,07,21,10,08,17.50
2014,07,21,10,09,17.50
2014,07,21,10,10,17.60
2014,07,21,10,11,17.60
2014,07,21,10,12,17.60
2014,07,21,10,13,17.70
2014,07,21,10,14,17.70
2014,07,21,10,15,17.70
2014,07,21,10,16,17.80
2014,07,21,10,17,17.90
2014,07,21,10,18,18.00
2014,07,21,10,19,18.10
2014,07,21,10,20,18.10
2014,07,21,10,21,18.20
2014,07,21,10,22,18.30
2014,07,21,10,23,18.30
2014,07,21,10,24,18.40
2014,07,21,10,25,18.40
2014,07,21,10,26,18.50
2014,07,21,10,27,18.50
2014,07,21,10,28,18.60
2014,07,21,10,29,18.60
2014,07,21,10,30,18.60
2014,07,21,10,31,18.60
2014,07,21,10,32,18.60
2014,07,21,10,33,18.50
2014,07,21,10,34,18.40
2014,07,21,10,35,18.40
2014,07,21,10,36,18.30
2014,07,21,10,37,18.20
2014,07,21,10,38,18.20
2014,07,21,10,39,18.20
2014,07,21,10,40,18.20
2014,07,21,10,41,18.20
2014,07,21,10,42,18.20
2014,07,21,10,43,18.20
2014,07,21,10,44,18.20
2014,07,21,10,45,18.20
2014,07,21,10,46,18.20
2014,07,21,10,47,18.20
2014,07,21,10,48,18.20
2014,07,21,10,49,18.20
2014,07,21,10,50,18.30
2014,07,21,10,51,18.30
2014,07,21,10,52,18.40
2014,07,21,10,53,18.40
2014,07,21,10,54,18.40
2014,07,21,10,55,18.40
2014,07,21,10,56,18.30
2014,07,21,10,57,18.30
2014,07,21,10,58,18.30
2014,07,21,10,59,18.30
2014,07,21,11,00,18.30
2014,07,21,11,01,18.20
2014,07,21,11,02,18.20
2014,07,21,11,03,18.20
2014,07,21,11,04,18.20
2014,07,21,11,05,18.20
2014,07,21,11,06,18.20
2014,07,21,11,07,18.10
2014,07,21,11,08,18.10
2014,07,21,11,09,18.00
2014,07,21,11,10,18.00
2014,07,21,11,11,17.90
2014,07,21,11,12,17.90
2014,07,21,11,13,17.90
2014,07,21,11,14,18.00
2014,07,21,11,15,18.00
2014,07,21,11,16,18.10
2014,07,21,11,17,18.10
2014,07,21,11,18,18.10
2014,07,21,11,19,18.00
2014,07,21,11,20,18.00
2014,07,21,11,21,17.90
2014,07,21,11,22,17.90
2014,07,21,11,23,17.90
2014,07,21,11,24,17.80
2014,07,21,11,25,17.80
2014,07,21,11,26,17.80
2014,07,21,11,27,17.80
2014,07,21,11,28,17.80
2014,07,21,11,29,17.70
2014,07,21,11,30,17.70
2014,07,21,11,31,17.70
2014,07,21,11,32,17.70
2014,07,21,11,33,17.70
2014,07,21,11,34,17.60
2014,07,21,11,35,17.60
2014,07,21,11,36,17.60
2014,07,21,11,37,17.60
2014,07,21,11,38,17.60
2014,07,21,11,39,17.70
2014,07,21,11,40,17.70
2014,07,21,11,41,17.70
2014,07,21,11,42,17.70
2014,07,21,11,43,17.70
2014,07,21,11,44,17.80
2014,07,21,11,45,17.80
2014,07,21,11,46,17.80
2014,07,21,11,47,17.80
2014,07,21,11,48,17.80
2014,07,21,11,49,17.80
2014,07,21,11,50,17.80
2014,07,21,11,51,17.80
2014,07,21,11,52,17.80
2014,07,21,11,53,17.90
2014,07,21,11,54,17.90
2014,07,21,11,55,17.80
2014,07,21,11,56,17.80
2014,07,21,11,57,17.80
2014,07,21,11,58,17.80
2014,07,21,11,59,17.80
2014,07,21,12,00,17.80
2014,07,21,12,01,17.70
2014,07,21,12,02,17.70
2014,07,21,12,03,17.70
2014,07,21,12,04,17.70
2014,07,21,12,05,17.70
2014,07,21,12,06,17.70
2014,07,21,12,07,17.80
2014,07,21,12,08,17.80
2014,07,21,12,09,17.80
2014,07,21,12,10,17.80
2014,07,21,12,11,17.80
2014,07,21,12,12,17.80
2014,07,21,12,13,17.80
2014,07,21,12,14,17.80
2014,07,21,12,15,17.80
2014,07,21,12,16,17.80
2014,07,21,12,17,17.80
2014,07,21,12,18,17.80
2014,07,21,12,19,17.80
2014,07,21,12,20,17.80
2014,07,21,12,21,17.80
2014,07,21,12,22,17.80
2014,07,21,12,23,17.80
2014,07,21,12,24,17.80
2014,07,21,12,25,17.80
2014,07,21,12,26,17.90
2014,07,21,12,27,17.80
2014,07,21,12,28,17.80
2014,07,21,12,29,17.80
2014,07,21,12,30,17.80
2014,07,21,12,31,17.80
2014,07,21,12,32,17.80
2014,07,21,12,33,17.80
2014,07,21,12,34,17.70
2014,07,21,12,35,17.70
2014,07,21,12,36,17.70
2014,07,21,12,37,17.70
2014,07,21,12,38,17.80
2014,07,21,12,39,17.80
2014,07,21,12,40,17.80
2014,07,21,12,41,17.80
2014,07,21,12,42,17.90
2014,07,21,12,43,17.90
2014,07,21,12,44,18.00
2014,07,21,12,45,18.00
2014,07,21,12,46,18.10
2014,07,21,12,47,18.20
2014,07,21,12,48,18.40
2014,07,21,12,49,18.60
2014,07,21,12,50,18.70
2014,07,21,12,51,18.80
2014,07,21,12,52,18.90
2014,07,21,12,53,19.10
2014,07,21,12,54,19.20
2014,07,21,12,55,19.20
2014,07,21,12,56,19.20
2014,07,21,12,57,19.20
2014,07,21,12,58,19.30
2014,07,21,12,59,19.40
2014,07,21,13,00,19.50
2014,07,21,13,01,19.60
2014,07,21,13,02,19.80
2014,07,21,13,03,19.90
2014,07,21,13,04,20.10
2014,07,21,13,05,20.20
2014,07,21,13,06,20.30
2014,07,21,13,07,20.40
2014,07,21,13,08,20.60
2014,07,21,13,09,20.60
2014,07,21,13,10,20.70
2014,07,21,13,11,20.80
2014,07,21,13,12,20.90
2014,07,21,13,13,21.10
2014,07,21,13,14,21.20
2014,07,21,13,15,21.20
2014,07,21,13,16,21.30
2014,07,21,13,17,21.40
2014,07,21,13,18,21.30
2014,07,21,13,19,21.40
2014,07,21,13,20,21.40
2014,07,21,13,21,21.30
2014,07,21,13,22,21.30
2014,07,21,13,23,21.30
2014,07,21,13,24,21.30
2014,07,21,13,25,21.30
2014,07,21,13,26,21.30
2014,07,21,13,27,21.30
2014,07,21,13,28,21.30
2014,07,21,13,29,21.20
2014,07,21,13,30,21.20
2014,07,21,13,31,21.20
2014,07,21,13,32,21.20
2014,07,21,13,33,21.10
2014,07,21,13,34,21.10
2014,07,21,13,35,21.10
2014,07,21,13,36,21.00
2014,07,21,13,37,21.00
2014,07,21,13,38,20.80
2014,07,21,13,39,20.80
2014,07,21,13,40,20.70
2014,07,21,13,41,20.70
2014,07,21,13,42,20.70
2014,07,21,13,43,20.70
2014,07,21,13,44,20.70
2014,07,21,13,45,20.60
2014,07,21,13,46,20.60
2014,07,21,13,47,20.50
2014,07,21,13,48,20.40
2014,07,21,13,49,20.30
2014,07,21,13,50,20.20
2014,07,21,13,51,20.10
2014,07,21,13,52,20.10
2014,07,21,13,53,19.90
2014,07,21,13,54,19.90
2014,07,21,13,55,19.80
2014,07,21,13,56,19.80
2014,07,21,13,57,19.80
2014,07,21,13,58,19.80
2014,07,21,13,59,19.80
2014,07,21,14,00,19.80
2014,07,21,14,01,19.80
2014,07,21,14,02,19.80
2014,07,21,14,03,19.70
2014,07,21,14,04,19.60
2014,07,21,14,05,19.60
2014,07,21,14,06,19.50
2014,07,21,14,07,19.50
2014,07,21,14,08,19.40
2014,07,21,14,09,19.40
2014,07,21,14,10,19.40
2014,07,21,14,11,19.50
2014,07,21,14,12,19.50
2014,07,21,14,13,19.60
2014,07,21,14,14,19.70
2014,07,21,14,15,19.80
2014,07,21,14,16,19.90
2014,07,21,14,17,20.00
2014,07,21,14,18,20.10
2014,07,21,14,19,20.20
2014,07,21,14,20,20.30
2014,07,21,14,21,20.30
2014,07,21,14,22,20.40
2014,07,21,14,23,20.40
2014,07,21,14,24,20.40
2014,07,21,14,25,20.40
2014,07,21,14,26,20.30
2014,07,21,14,27,20.30
2014,07,21,14,28,20.30
2014,07,21,14,29,20.30
2014,07,21,14,30,20.30
2014,07,21,14,31,20.30
2014,07,21,14,32,20.30
2014,07,21,14,33,20.30
2014,07,21,14,34,20.30
2014,07,21,14,35,20.30
2014,07,21,14,36,20.30
2014,07,21,14,37,20.30
2014,07,21,14,38,20.20
2014,07,21,14,39,20.20
2014,07,21,14,40,20.10
2014,07,21,14,41,20.10
2014,07,21,14,42,20.00
2014,07,21,14,43,19.90
2014,07,21,14,44,19.90
2014,07,21,14,45,19.90
2014,07,21,14,46,19.90
2014,07,21,14,47,19.90
2014,07,21,14,48,19.90
2014,07,21,14,49,20.00
2014,07,21,14,50,20.00
2014,07,21,14,51,20.10
2014,07,21,14,52,20.00
2014,07,21,14,53,20.00
2014,07,21,14,54,20.00
2014,07,21,14,55,19.90
2014,07,21,14,56,19.90
2014,07,21,14,57,19.90
2014,07,21,14,58,19.80
2014,07,21,14,59,19.80
2014,07,21,15,00,19.80
2014,07,21,15,01,19.80
2014,07,21,15,02,19.70
2014,07,21,15,03,19.70
2014,07,21,15,04,19.70
2014,07,21,15,05,19.70
2014,07,21,15,06,19.70
2014,07,21,15,07,19.60
2014,07,21,15,08,19.50
2014,07,21,15,09,19.40
2014,07,21,15,10,19.40
2014,07,21,15,11,19.30
2014,07,21,15,12,19.30
2014,07,21,15,13,19.20
2014,07,21,15,14,19.20
2014,07,21,15,15,19.20
2014,07,21,15,16,19.10
2014,07,21,15,17,19.10
2014,07,21,15,18,19.10
2014,07,21,15,19,19.20
2014,07,21,15,20,19.20
2014,07,21,15,21,19.20
2014,07,21,15,22,19.30
2014,07,21,15,23,19.30
2014,07,21,15,24,19.30
2014,07,21,15,25,19.30
2014,07,21,15,26,19.40
2014,07,21,15,27,19.40
2014,07,21,15,28,19.40
2014,07,21,15,29,19.40
2014,07,21,15,30,19.40
2014,07,21,15,31,19.40
2014,07,21,15,32,19.40
2014,07,21,15,33,19.30
2014,07,21,15,34,19.30
2014,07,21,15,35,19.30
2014,07,21,15,36,19.40
2014,07,21,15,37,19.40
2014,07,21,15,38,19.40
2014,07,21,15,39,19.40
2014,07,21,15,40,19.40
2014,07,21,15,41,19.40
2014,07,21,15,42,19.40
2014,07,21,15,43,19.40
2014,07,21,15,44,19.40
2014,07,21,15,45,19.40
2014,07,21,15,46,19.40
2014,07,21,15,47,19.40
2014,07,21,15,48,19.40
2014,07,21,15,49,19.40
2014,07,21,15,50,19.40
2014,07,21,15,51,19.30
2014,07,21,15,52,19.30
2014,07,21,15,53,19.30
2014,07,21,15,54,19.20
2014,07,21,15,55,19.20
2014,07,21,15,56,19.10
2014,07,21,15,57,19.10
2014,07,21,15,58,19.10
2014,07,21,15,59,19.10
2014,07,21,16,00,19.10
2014,07,21,16,01,19.20
2014,07,21,16,02,19.20
2014,07,21,16,03,19.20
2014,07,21,16,04,19.10
2014,07,21,16,05,19.10
2014,07,21,16,06,19.10
2014,07,21,16,07,19.10
2014,07,21,16,08,19.10
2014,07,21,16,09,19.10
2014,07,21,16,10,19.20
2014,07,21,16,11,19.20
2014,07,21,16,12,19.20
2014,07,21,16,13,19.10
2014,07,21,16,14,19.10
2014,07,21,16,15,19.10
2014,07,21,16,16,19.10
2014,07,21,16,17,19.20
2014,07,21,16,18,19.20
2014,07,21,16,19,19.20
2014,07,21,16,20,19.20
2014,07,21,16,21,19.20
2014,07,21,16,22,19.30
2014,07,21,16,23,19.30
2014,07,21,16,24,19.30
2014,07,21,16,25,19.30
2014,07,21,16,26,19.40
2014,07,21,16,27,19.40
2014,07,21,16,28,19.40
2014,07,21,16,29,19.40
2014,07,21,16,30,19.40
2014,07,21,16,31,19.40
2014,07,21,16,32,19.40
2014,07,21,16,33,19.40
2014,07,21,16,34,19.40
2014,07,21,16,35,19.40
2014,07,21,16,36,19.30
2014,07,21,16,37,19.30
2014,07,21,16,38,19.30
2014,07,21,16,39,19.30
2014,07,21,16,40,19.30
2014,07,21,16,41,19.40
2014,07,21,16,42,19.40
2014,07,21,16,43,19.40
2014,07,21,16,44,19.40
2014,07,21,16,45,19.50
2014,07,21,16,46,19.50
2014,07,21,16,47,19.50
2014,07,21,16,48,19.50
2014,07,21,16,49,19.50
2014,07,21,16,50,19.40
2014,07,21,16,51,19.40
2014,07,21,16,52,19.50
2014,07,21,16,53,19.50
2014,07,21,16,54,19.50
2014,07,21,16,55,19.50
2014,07,21,16,56,19.50
2014,07,21,16,57,19.60
2014,07,21,16,58,19.60
2014,07,21,16,59,19.60
2014,07,21,17,00,19.70
2014,07,21,17,01,19.70
2014,07,21,17,02,19.70
2014,07,21,17,03,19.80
2014,07,21,17,04,19.80
2014,07,21,17,05,19.90
2014,07,21,17,06,19.90
2014,07,21,17,07,20.00
2014,07,21,17,08,20.10
2014,07,21,17,09,20.10
2014,07,21,17,10,20.20
2014,07,21,17,11,20.20
2014,07,21,17,12,20.20
2014,07,21,17,13,20.20
2014,07,21,17,14,20.20
2014,07,21,17,15,20.20
2014,07,21,17,16,20.20
2014,07,21,17,17,20.20
2014,07,21,17,18,20.20
2014,07,21,17,19,20.30